CAPE
89 80 101 180 176 161 149 146 212 123 82 66 50 87 69 56 168 465 573 348 166 90 44 8 2 0 0 0 0 0 0 0 0 0 0 1 9 17
92 112 117 130 63 211 287 270 186 166 77 78 26 26 60 81 66 173 231 201 75 17 13 1 0 0 0 0 0 0 0 0 0 0 0 2 25 127
150 82 25 5 236 314 247 229 139 80 124 111 3 25 46 60 92 130 105 62 54 20 14 4 0 0 0 0 0 0 0 0 0 0 4 33 90 167
172 58 0 89 352 371 293 172 100 43 90 42 0 0 0 46 62 90 55 28 12 7 0 0 0 0 0 0 0 0 0 0 0 0 18 87 117 137
116 45 91 371 511 410 300 148 52 2 0 0 28 0 2 0 6 9 9 0 4 4 8 0 0 0 0 0 0 0 0 0 0 0 31 124 157 136
167 272 498 562 537 426 238 113 73 19 0 0 8 8 48 5 3 15 16 11 7 2 0 0 0 0 0 0 0 0 0 0 0 0 23 95 101 89
516 673 682 530 446 396 232 113 51 18 0 0 0 0 3 0 0 0 0 4 1 4 2 0 1 1 0 0 0 0 0 0 0 0 6 46 40 48
693 718 585 407 402 278 199 131 52 46 18 0 0 0 0 0 0 0 0 0 0 0 0 0 0 0 0 0 0 0 0 0 0 0 0 1 1 0
795 841 486 379 308 248 110 75 86 35 47 44 9 0 7 0 0 0 0 0 0 0 0 0 0 0 0 0 0 0 0 0 0 0 0 0 0 0
678 774 583 328 284 217 176 50 103 72 24 40 56 80 102 56 0 3 0 2 1 0 0 1 0 0 0 0 0 0 0 0 0 0 0 0 0 0
513 471 482 387 245 138 137 121 79 74 24 35 47 67 48 0 0 0 0 0 0 0 1 4 0 0 0 0 0 0 0 0 0 0 0 0 0 0
106 139 219 315 256 134 191 161 89 78 46 50 17 0 0 0 0 1 8 0 0 0 0 2 0 0 0 0 0 0 0 0 0 0 0 0 0 0
37 45 83 152 139 115 134 227 197 198 80 50 42 25 14 0 0 0 0 0 0 0 0 0 0 0 0 0 0 0 0 0 0 0 0 0 0 0
1 5 108 91 45 27 1 0 0 0 39 43 37 61 77 76 16 0 0 0 1 28 1 0 0 0 1 1 0 0 0 2 0 0 0 0 0 0
18 29 27 33 14 8 19 16 1 0 22 51 80 98 95 81 13 0 0 0 1 0 2 0 0 0 2 0 2 0 0 0 0 0 0 0 0 0
0 0 0 0 0 0 0 0 4 13 29 24 55 50 32 10 7 13 7 7 3 1 1 2 2 15 0 0 3 1 0 0 0 1 1 0 1 1
0 0 0 0 0 0 0 0 0 0 0 3 9 16 5 3 5 1 1 3 3 3 1 1 2 2 4 14 4 1 3 0 1 0 3 2 3 2
0 0 0 0 0 0 0 0 0 0 0 8 1 8 17 5 0 1 0 2 5 4 4 2 4 2 3 3 2 3 4 4 2 0 1 2 3 3
0 3 2 1 1 1 1 1 1 2 0 0 6 0 1 4 14 9 2 2 5 2 3 9 4 2 3 2 1 0 4 3 17 3 0 2 1 3
0 0 0 0 1 2 2 1 0 0 2 1 5 10 12 26 22 18 13 24 16 7 8 3 7 10 6 2 3 3 2 0 5 16 1 2 1 0
1 1 0 0 0 0 0 0 0 0 0 2 2 28 31 26 6 20 17 6 2 8 5 1 0 1 0 0 0 2 3 2 1 0 1 0 1 3
0 0 0 0 0 2 2 1 2 2 1 1 1 1 1 1 0 1 0 0 0 1 0 1 2 0 0 0 0 1 4 3 3 3 2 3 1 2
0 0 0 0 0 0 0 0 0 0 0 2 1 1 1 1 0 1 0 0 1 1 1 2 1 0 0 1 1 3 2 1 0 0 0 0 0 0
CIN
-70 -87 -69 -75 -76 -84 -63 -43 -18 -26 -88 -158 -120 -139 -126 -149 -121 -63 -53 -81 -88 -102 -120 -126 -141 0 0 0 0 0 0 0 0 0 0 -69 -190 -156
-83 -71 -67 -80 -100 -100 -58 -53 -62 -36 -96 -128 -114 -93 -97 -107 -142 -71 -21 -31 -71 -73 -109 -72 0 0 0 0 0 0 0 0 0 0 -79 -195 -183 -63
-97 -145 -74 -22 -56 -32 -42 -47 -41 -55 -46 -75 -161 -125 -102 -67 -54 -25 -25 -36 -55 -75 -110 -146 0 0 0 0 0 0 0 0 0 0 -185 -121 -53 -34
-101 -167 0 -82 -19 -13 -18 -54 -48 -71 -39 -90 0 0 0 -69 -42 -31 -35 -54 -53 -46 -6 0 0 0 0 0 0 0 0 0 0 0 -126 -67 -50 -31
-152 -213 -139 -22 -14 -14 -10 -40 -82 -18 0 0 -99 0 -89 0 -94 -81 -83 -15 -60 -64 -79 0 0 0 0 0 0 0 0 0 0 0 -86 -46 -38 -45
-177 -72 -22 -17 -11 -11 -10 -68 -84 -103 0 0 -101 -170 -150 -184 -66 -116 -107 -102 -49 -36 -43 0 0 0 0 0 0 0 0 0 0 0 -52 -37 -50 -67
-93 -52 -24 -19 -20 -10 -34 -43 -70 -137 0 0 0 0 -45 -67 0 0 0 -143 -37 -164 -30 -2 -37 -29 0 0 0 0 0 0 0 -28 -81 -69 -77 -91
-85 -75 -50 -26 -21 -30 -40 -85 -61 -89 -137 0 0 0 0 0 0 0 0 0 0 0 0 0 0 0 0 0 0 0 0 0 0 0 0 -23 -14 0
-23 -49 -110 -99 -30 -32 -85 -110 -156 -95 -94 -78 -13 0 -16 0 0 0 0 0 0 0 0 0 0 0 0 0 0 0 0 0 0 0 0 -8 0 0
-37 -45 -51 -103 -61 -56 -34 -50 -146 -120 -87 -107 -62 -35 -27 -30 0 -17 0 0 0 0 0 0 0 0 0 0 0 0 0 0 0 0 0 -8 0 0
-55 -74 -53 -93 -106 -106 -60 -26 -36 -117 -140 -135 -114 -52 -53 -1 0 0 0 0 0 0 0 0 0 0 0 0 0 0 0 0 0 0 0 0 0 0
-87 -74 -87 -82 -152 -106 -61 -42 -31 -42 -69 -99 -150 0 0 0 0 -15 -10 0 0 0 0 0 0 0 0 0 0 0 0 0 0 0 0 0 0 0
-83 -92 -108 -128 -138 -166 -109 -51 -51 -36 -75 -119 -103 -98 -107 0 0 0 0 0 0 0 0 0 0 0 0 0 0 0 0 0 0 0 0 0 0 0
-26 -40 -105 -157 -231 -258 -48 0 0 0 -97 -66 -76 -66 -49 -67 -89 0 0 0 -18 -44 -8 0 0 0 -9 -1 0 0 0 0 0 0 0 0 0 0
-105 -79 -151 -211 -181 -177 -167 -166 -184 0 -120 -93 -81 -65 -61 -69 -87 0 0 0 -4 0 -2 0 0 0 -12 -2 -1 0 0 0 0 0 0 0 0 0
0 0 0 0 0 0 -106 0 -203 -144 -96 -141 -82 -56 -73 -100 -143 -135 -54 -71 -81 -6 -4 0 -87 -38 0 -5 -6 0 0 -2 0 0 -77 0 0 0
0 0 0 0 0 0 0 0 0 0 0 -89 -77 -60 -90 -72 -185 0 0 0 0 0 0 -2 0 0 -28 -11 -3 0 0 0 0 0 0 0 0 0
0 0 0 0 0 0 0 0 0 0 -55 -82 -47 -72 -96 -130 0 0 0 0 0 0 0 0 -1 0 0 0 -10 -16 -3 -92 -3 0 0 0 0 0
0 0 0 0 0 0 0 0 0 -108 0 0 -133 -5 -20 -25 -22 -23 -10 -1 -1 -2 0 -13 -12 -6 -18 0 0 0 0 0 -52 -21 0 0 0 0
-1 0 0 0 0 0 0 0 0 0 0 0 -53 -37 -15 -9 -17 -9 -4 -3 -2 -9 -12 -6 -12 -20 -11 -14 -4 0 0 0 -9 -28 0 0 0 0
0 0 0 0 0 0 0 0 0 0 0 -45 -10 -18 -14 -19 -21 -19 -8 -23 -19 -28 -8 -13 0 0 0 0 0 0 0 0 0 0 0 0 0 0
0 0 0 0 0 0 0 0 0 0 0 0 0 -11 0 -7 0 0 0 0 0 -33 0 0 0 0 0 0 0 0 0 0 0 0 0 0 0 0
0 0 0 0 0 0 0 0 0 0 0 0 0 0 0 0 0 0 0 0 0 0 0 0 0 0 0 0 0 0 0 0 0 0 0 0 0 0
Wind_Speed
24 13 11 18 17 19 20 19 21 28 29 25 25 25 26 26 26 26 24 20 17 18 15 20 22 24 23 22 21 23 23 24 24 23 21 16 11 12
15 17 13 8 11 13 13 15 13 13 21 23 21 24 24 23 24 24 24 18 17 17 17 19 24 25 23 22 22 24 23 24 25 25 19 11 8 8
5 8 7 4 6 9 12 12 11 8 13 21 18 20 21 22 21 21 20 20 15 15 14 19 24 24 24 25 25 24 24 27 28 25 16 9 8 5
4 6 5 6 8 12 11 9 11 9 11 17 19 17 15 15 18 17 18 19 18 17 16 19 23 23 23 25 25 26 26 26 26 21 12 9 6 5
5 6 6 9 10 12 10 12 10 11 9 14 14 16 17 15 16 17 17 20 21 19 17 20 19 22 23 24 25 25 26 25 25 18 11 7 4 4
7 7 9 10 11 8 5 3 6 7 6 9 13 15 13 13 14 9 12 18 17 15 15 16 17 20 22 23 24 22 20 20 20 14 7 4 3 3
10 8 9 14 16 14 12 9 5 6 8 7 8 16 15 14 12 14 11 12 14 12 11 14 17 19 22 24 24 20 18 17 16 10 2 2 2 2
14 12 12 11 15 15 12 10 5 6 7 9 11 9 15 16 15 16 15 14 16 14 16 21 21 23 22 18 17 17 17 16 16 9 3 5 5 4
13 12 18 15 14 17 14 12 9 7 9 9 10 9 12 14 16 17 15 15 15 16 18 23 20 24 24 20 11 11 13 15 16 12 2 4 6 7
20 16 14 16 15 16 17 17 13 12 10 10 9 10 9 15 13 15 16 18 20 18 18 23 19 21 22 19 11 9 12 16 18 19 12 3 5 5
23 25 24 19 16 15 17 19 19 17 16 11 11 12 11 11 13 16 19 19 23 22 16 21 20 21 21 20 16 8 8 11 12 13 17 9 6 6
27 25 23 25 22 21 20 21 21 21 19 20 19 17 13 14 12 15 19 22 22 25 19 17 21 20 23 21 18 14 11 8 8 10 9 7 9 8
26 26 23 22 27 26 27 25 26 24 21 22 22 22 19 16 15 17 17 18 20 22 23 15 21 18 17 20 18 13 12 12 10 8 8 9 11 11
25 25 26 21 23 25 26 28 27 26 26 28 26 24 25 23 21 20 19 19 20 23 22 16 24 20 20 22 20 18 15 16 15 15 14 12 11 14
19 25 25 29 34 29 25 24 27 27 27 27 31 31 30 29 27 25 23 21 24 24 23 19 21 22 20 21 24 21 19 18 16 19 20 18 16 17
17 23 26 29 34 35 33 29 31 33 35 37 36 33 33 31 29 26 28 27 28 29 26 23 23 25 25 23 23 22 20 23 20 19 20 21 21 20
21 21 24 30 33 35 37 35 34 34 36 36 35 34 34 34 33 30 31 31 33 35 35 30 27 28 29 28 24 23 25 25 25 23 21 22 22 21
21 21 20 20 23 26 28 31 31 30 31 30 29 28 32 34 31 28 28 29 30 32 34 30 28 29 29 29 22 26 26 25 27 25 23 24 24 20
20 21 23 23 23 25 28 29 30 31 29 31 30 31 31 29 26 27 28 27 29 31 32 31 31 29 30 33 27 20 26 22 26 26 26 26 29 27
20 21 22 23 23 24 26 28 29 29 30 27 27 27 25 23 25 28 28 29 30 31 31 31 29 27 27 27 28 28 29 29 29 27 29 28 28 34
21 21 22 22 23 24 24 25 26 26 27 27 27 26 26 28 29 27 30 30 30 31 32 30 25 22 20 18 21 21 22 18 21 26 30 32 30 29
20 20 20 21 22 23 23 23 23 24 24 23 24 27 28 27 29 31 31 31 28 28 28 25 22 21 22 23 23 20 18 20 19 19 22 24 29 32
18 19 20 21 22 22 23 23 23 23 24 24 24 26 26 27 26 24 24 24 24 22 21 23 22 21 21 19 17 17 18 18 18 18 22 24 24 25
Wind_Direction
198 208 238 280 289 292 292 297 300 301 304 312 312 314 306 305 301 299 295 294 292 299 311 303 301 304 311 317 321 321 323 325 327 324 324 326 326 323
184 187 198 252 280 293 298 302 301 299 309 315 322 319 314 310 305 300 295 295 299 294 304 300 298 303 309 314 318 320 324 324 323 323 329 336 340 335
180 185 202 225 275 295 302 305 305 304 312 321 332 331 321 319 317 304 301 298 300 300 307 300 297 303 306 309 314 318 321 316 315 321 335 345 350 20
270 295 275 298 295 301 305 305 306 307 316 321 331 338 344 338 325 317 311 303 300 300 310 303 293 303 310 309 314 314 314 315 314 324 340 349 6 28
294 299 298 306 305 305 305 310 314 317 318 323 333 337 341 345 344 326 315 303 299 305 311 298 305 306 311 312 312 314 314 314 313 322 332 350 42 56
302 306 310 309 310 309 302 304 323 327 331 325 326 327 340 346 349 11 344 318 316 317 314 311 313 312 311 314 314 318 321 321 321 329 337 353 48 71
297 302 310 307 305 305 309 316 323 324 331 336 337 322 327 334 348 344 349 345 334 331 334 323 318 314 312 309 311 317 320 321 328 340 23 106 99 110
286 293 303 307 304 301 303 309 318 318 324 327 330 341 322 324 331 328 328 334 332 333 327 318 317 313 312 313 314 314 316 317 321 337 130 139 144 145
278 284 287 296 297 296 299 303 310 311 318 327 327 331 332 329 325 324 327 326 328 327 323 318 321 313 311 312 312 311 313 312 312 316 161 161 157 152
278 281 282 288 286 290 294 297 302 306 307 318 325 332 333 328 326 323 325 320 316 318 319 316 323 319 319 317 316 304 306 305 302 298 302 193 175 172
274 279 277 277 280 282 288 291 295 298 301 305 311 317 324 326 326 322 315 315 311 311 318 315 320 323 323 318 317 301 292 299 300 299 293 281 252 255
271 275 274 273 275 277 281 285 290 293 296 300 305 309 311 313 314 313 313 307 308 308 314 313 317 320 319 321 315 309 297 284 286 287 276 250 213 243
269 269 275 278 273 273 276 280 283 290 294 297 300 303 307 308 307 304 304 304 305 304 307 309 311 316 317 317 321 316 296 292 285 272 256 246 221 223
273 277 274 275 276 278 276 280 285 288 291 291 296 299 300 301 304 303 300 297 298 298 303 299 303 304 309 311 310 310 302 291 284 282 285 278 234 221
287 276 279 268 270 276 278 284 283 286 289 292 289 294 297 300 302 303 301 298 295 293 294 291 294 298 297 301 304 303 300 291 281 279 279 275 268 262
297 283 279 272 272 277 281 286 288 287 288 285 286 291 294 297 299 301 299 299 295 295 293 288 285 288 290 289 293 294 291 289 288 280 275 274 272 267
299 301 289 285 276 281 285 287 290 293 292 286 287 286 288 295 295 298 297 296 293 291 292 294 288 285 284 285 284 286 288 285 282 280 277 276 272 264
307 307 306 303 298 298 298 297 298 298 295 292 291 292 290 291 296 300 300 298 295 294 292 294 294 290 287 282 267 282 284 283 279 278 277 278 277 270
320 318 311 309 307 304 305 306 304 301 300 291 293 292 293 295 300 301 300 299 298 297 296 296 295 290 285 284 289 255 273 276 282 276 273 274 280 279
330 327 325 322 319 317 316 314 310 306 303 303 298 299 300 302 301 298 298 298 299 299 299 300 299 295 289 288 290 288 287 274 281 277 279 280 280 283
339 335 333 332 329 327 326 325 323 317 311 308 306 305 305 301 300 299 299 297 299 299 297 302 309 318 312 315 307 313 309 311 303 293 287 287 290 292
356 355 354 352 349 345 342 338 333 330 326 324 318 307 307 305 303 302 299 297 298 299 302 306 313 313 308 304 304 304 312 311 317 329 326 320 303 299
7 7 5 3 1 359 356 352 348 344 339 333 328 324 318 311 314 312 313 310 307 308 303 304 309 315 310 310 309 308 309 312 320 329 336 347 350 344